Year,Month,Day,Hour,Minute,Value (Times are PST for temperature in C)
2017,10,13,00,00,3.90
2017,10,13,00,01,3.90
2017,10,13,00,02,3.90
2017,10,13,00,03,3.90
2017,10,13,00,04,3.90
2017,10,13,00,05,3.90
2017,10,13,00,06,3.90
2017,10,13,00,07,3.90
2017,10,13,00,08,3.90
2017,10,13,00,09,3.90
2017,10,13,00,10,3.90
2017,10,13,00,11,3.90
2017,10,13,00,12,3.90
2017,10,13,00,13,3.90
2017,10,13,00,14,3.90
2017,10,13,00,15,4.00
2017,10,13,00,16,4.00
2017,10,13,00,17,4.00
2017,10,13,00,18,4.00
2017,10,13,00,19,4.10
2017,10,13,00,20,4.10
2017,10,13,00,21,4.10
2017,10,13,00,22,4.10
2017,10,13,00,23,4.10
2017,10,13,00,24,4.10
2017,10,13,00,25,4.10
2017,10,13,00,26,4.10
2017,10,13,00,27,4.10
2017,10,13,00,28,4.10
2017,10,13,00,29,4.10
2017,10,13,00,30,4.20
2017,10,13,00,31,4.20
2017,10,13,00,32,4.20
2017,10,13,00,33,4.20
2017,10,13,00,34,4.20
2017,10,13,00,35,4.20
2017,10,13,00,36,4.20
2017,10,13,00,37,4.20
2017,10,13,00,38,4.20
2017,10,13,00,39,4.20
2017,10,13,00,40,4.20
2017,10,13,00,41,4.20
2017,10,13,00,42,4.20
2017,10,13,00,43,4.20
2017,10,13,00,44,4.20
2017,10,13,00,45,4.20
2017,10,13,00,46,4.30
2017,10,13,00,47,4.30
2017,10,13,00,48,4.30
2017,10,13,00,49,4.30
2017,10,13,00,50,4.30
2017,10,13,00,51,4.30
2017,10,13,00,52,4.30
2017,10,13,00,53,4.30
2017,10,13,00,54,4.30
2017,10,13,00,55,4.30
2017,10,13,00,56,4.30
2017,10,13,00,57,4.30
2017,10,13,00,58,4.30
2017,10,13,00,59,4.30
2017,10,13,01,00,4.30
2017,10,13,01,01,4.30
2017,10,13,01,02,4.30
2017,10,13,01,03,4.30
2017,10,13,01,04,4.30
2017,10,13,01,05,4.30
2017,10,13,01,06,4.30
2017,10,13,01,07,4.30
2017,10,13,01,08,4.30
2017,10,13,01,09,4.40
2017,10,13,01,10,4.40
2017,10,13,01,11,4.40
2017,10,13,01,12,4.40
2017,10,13,01,13,4.30
2017,10,13,01,14,4.30
2017,10,13,01,15,4.30
2017,10,13,01,16,4.30
2017,10,13,01,17,4.40
2017,10,13,01,18,4.40
2017,10,13,01,19,4.40
2017,10,13,01,20,4.40
2017,10,13,01,21,4.40
2017,10,13,01,22,4.40
2017,10,13,01,23,4.40
2017,10,13,01,24,4.40
2017,10,13,01,25,4.40
2017,10,13,01,26,4.40
2017,10,13,01,27,4.40
2017,10,13,01,28,4.40
2017,10,13,01,29,4.40
2017,10,13,01,30,4.40
2017,10,13,01,31,4.40
2017,10,13,01,32,4.40
2017,10,13,01,33,4.40
2017,10,13,01,34,4.40
2017,10,13,01,35,4.40
2017,10,13,01,36,4.40
2017,10,13,01,37,4.40
2017,10,13,01,38,4.40
2017,10,13,01,39,4.50
2017,10,13,01,40,4.50
2017,10,13,01,41,4.50
2017,10,13,01,42,4.60
2017,10,13,01,43,4.60
2017,10,13,01,44,4.60
2017,10,13,01,45,4.60
2017,10,13,01,46,4.60
2017,10,13,01,47,4.60
2017,10,13,01,48,4.60
2017,10,13,01,49,4.70
2017,10,13,01,50,4.70
2017,10,13,01,51,4.70
2017,10,13,01,52,4.70
2017,10,13,01,53,4.70
2017,10,13,01,54,4.70
2017,10,13,01,55,4.80
2017,10,13,01,56,4.80
2017,10,13,01,57,4.80
2017,10,13,01,58,4.80
2017,10,13,01,59,4.80
2017,10,13,02,00,4.80
2017,10,13,02,01,4.80
2017,10,13,02,02,4.80
2017,10,13,02,03,4.80
2017,10,13,02,04,4.80
2017,10,13,02,05,4.80
2017,10,13,02,06,4.70
2017,10,13,02,07,4.70
2017,10,13,02,08,4.70
2017,10,13,02,09,4.70
2017,10,13,02,10,4.70
2017,10,13,02,11,4.70
2017,10,13,02,12,4.70
2017,10,13,02,13,4.70
2017,10,13,02,14,4.70
2017,10,13,02,15,4.70
2017,10,13,02,16,4.70
2017,10,13,02,17,4.60
2017,10,13,02,18,4.60
2017,10,13,02,19,4.60
2017,10,13,02,20,4.60
2017,10,13,02,21,4.60
2017,10,13,02,22,4.50
2017,10,13,02,23,4.50
2017,10,13,02,24,4.50
2017,10,13,02,25,4.50
2017,10,13,02,26,4.40
2017,10,13,02,27,4.40
2017,10,13,02,28,4.40
2017,10,13,02,29,4.40
2017,10,13,02,30,4.40
2017,10,13,02,31,4.30
2017,10,13,02,32,4.30
2017,10,13,02,33,4.30
2017,10,13,02,34,4.30
2017,10,13,02,35,4.30
2017,10,13,02,36,4.30
2017,10,13,02,37,4.30
2017,10,13,02,38,4.30
2017,10,13,02,39,4.30
2017,10,13,02,40,4.20
2017,10,13,02,41,4.20
2017,10,13,02,42,4.20
2017,10,13,02,43,4.20
2017,10,13,02,44,4.20
2017,10,13,02,45,4.20
2017,10,13,02,46,4.10
2017,10,13,02,47,4.10
2017,10,13,02,48,4.10
2017,10,13,02,49,4.10
2017,10,13,02,50,4.10
2017,10,13,02,51,4.10
2017,10,13,02,52,4.00
2017,10,13,02,53,4.00
2017,10,13,02,54,4.00
2017,10,13,02,55,3.90
2017,10,13,02,56,3.90
2017,10,13,02,57,3.90
2017,10,13,02,58,3.90
2017,10,13,02,59,3.80
2017,10,13,03,00,3.80
2017,10,13,03,01,3.80
2017,10,13,03,02,3.80
2017,10,13,03,03,3.80
2017,10,13,03,04,3.80
2017,10,13,03,05,3.80
2017,10,13,03,06,3.80
2017,10,13,03,07,3.80
2017,10,13,03,08,3.80
2017,10,13,03,09,3.80
2017,10,13,03,10,3.70
2017,10,13,03,11,3.70
2017,10,13,03,12,3.70
2017,10,13,03,13,3.70
2017,10,13,03,14,3.70
2017,10,13,03,15,3.70
2017,10,13,03,16,3.70
2017,10,13,03,17,3.70
2017,10,13,03,18,3.60
2017,10,13,03,19,3.60
2017,10,13,03,20,3.60
2017,10,13,03,21,3.60
2017,10,13,03,22,3.50
2017,10,13,03,23,3.50
2017,10,13,03,24,3.50
2017,10,13,03,25,3.40
2017,10,13,03,26,3.40
2017,10,13,03,27,3.40
2017,10,13,03,28,3.40
2017,10,13,03,29,3.40
2017,10,13,03,30,3.40
2017,10,13,03,31,3.40
2017,10,13,03,32,3.40
2017,10,13,03,33,3.40
2017,10,13,03,34,3.40
2017,10,13,03,35,3.40
2017,10,13,03,36,3.30
2017,10,13,03,37,3.30
2017,10,13,03,38,3.30
2017,10,13,03,39,3.40
2017,10,13,03,40,3.40
2017,10,13,03,41,3.40
2017,10,13,03,42,3.40
2017,10,13,03,43,3.40
2017,10,13,03,44,3.30
2017,10,13,03,45,3.30
2017,10,13,03,46,3.30
2017,10,13,03,47,3.30
2017,10,13,03,48,3.30
2017,10,13,03,49,3.30
2017,10,13,03,50,3.30
2017,10,13,03,51,3.30
2017,10,13,03,52,3.30
2017,10,13,03,53,3.30
2017,10,13,03,54,3.30
2017,10,13,03,55,3.30
2017,10,13,03,56,3.30
2017,10,13,03,57,3.30
2017,10,13,03,58,3.20
2017,10,13,03,59,3.20
2017,10,13,04,00,3.20
2017,10,13,04,01,3.20
2017,10,13,04,02,3.10
2017,10,13,04,03,3.10
2017,10,13,04,04,3.10
2017,10,13,04,05,3.10
2017,10,13,04,06,3.10
2017,10,13,04,07,3.10
2017,10,13,04,08,3.10
2017,10,13,04,09,3.10
2017,10,13,04,10,3.10
2017,10,13,04,11,3.10
2017,10,13,04,12,3.10
2017,10,13,04,13,3.10
2017,10,13,04,14,3.10
2017,10,13,04,15,3.10
2017,10,13,04,16,3.10
2017,10,13,04,17,3.10
2017,10,13,04,18,3.10
2017,10,13,04,19,3.10
2017,10,13,04,20,3.10
2017,10,13,04,21,3.10
2017,10,13,04,22,3.00
2017,10,13,04,23,3.00
2017,10,13,04,24,3.10
2017,10,13,04,25,3.00
2017,10,13,04,26,3.10
2017,10,13,04,27,3.10
2017,10,13,04,28,3.10
2017,10,13,04,29,3.10
2017,10,13,04,30,3.10
2017,10,13,04,31,3.20
2017,10,13,04,32,3.20
2017,10,13,04,33,3.20
2017,10,13,04,34,3.20
2017,10,13,04,35,3.20
2017,10,13,04,36,3.20
2017,10,13,04,37,3.30
2017,10,13,04,38,3.30
2017,10,13,04,39,3.30
2017,10,13,04,40,3.30
2017,10,13,04,41,3.30
2017,10,13,04,42,3.30
2017,10,13,04,43,3.30
2017,10,13,04,44,3.30
2017,10,13,04,45,3.30
2017,10,13,04,46,3.30
2017,10,13,04,47,3.30
2017,10,13,04,48,3.30
2017,10,13,04,49,3.30
2017,10,13,04,50,3.40
2017,10,13,04,51,3.40
2017,10,13,04,52,3.40
2017,10,13,04,53,3.50
2017,10,13,04,54,3.50
2017,10,13,04,55,3.50
2017,10,13,04,56,3.50
2017,10,13,04,57,3.50
2017,10,13,04,58,3.50
2017,10,13,04,59,3.50
2017,10,13,05,00,3.50
2017,10,13,05,01,3.50
2017,10,13,05,02,3.50
2017,10,13,05,03,3.50
2017,10,13,05,04,3.50
2017,10,13,05,05,3.50
2017,10,13,05,06,3.50
2017,10,13,05,07,3.50
2017,10,13,05,08,3.60
2017,10,13,05,09,3.60
2017,10,13,05,10,3.60
2017,10,13,05,11,3.60
2017,10,13,05,12,3.60
2017,10,13,05,13,3.60
2017,10,13,05,14,3.70
2017,10,13,05,15,3.70
2017,10,13,05,16,3.70
2017,10,13,05,17,3.70
2017,10,13,05,18,3.70
2017,10,13,05,19,3.70
2017,10,13,05,20,3.80
2017,10,13,05,21,3.80
2017,10,13,05,22,3.80
2017,10,13,05,23,3.80
2017,10,13,05,24,3.80
2017,10,13,05,25,3.80
2017,10,13,05,26,3.90
2017,10,13,05,27,4.00
2017,10,13,05,28,4.00
2017,10,13,05,29,4.10
2017,10,13,05,30,4.10
2017,10,13,05,31,4.10
2017,10,13,05,32,4.10
2017,10,13,05,33,4.20
2017,10,13,05,34,4.20
2017,10,13,05,35,4.20
2017,10,13,05,36,4.30
2017,10,13,05,37,4.30
2017,10,13,05,38,4.30
2017,10,13,05,39,4.40
2017,10,13,05,40,4.40
2017,10,13,05,41,4.50
2017,10,13,05,42,4.50
2017,10,13,05,43,4.60
2017,10,13,05,44,4.70
2017,10,13,05,45,4.80
2017,10,13,05,46,4.80
2017,10,13,05,47,5.00
2017,10,13,05,48,5.10
2017,10,13,05,49,5.10
2017,10,13,05,50,5.20
2017,10,13,05,51,5.30
2017,10,13,05,52,5.40
2017,10,13,05,53,5.50
2017,10,13,05,54,5.60
2017,10,13,05,55,5.60
2017,10,13,05,56,5.70
2017,10,13,05,57,5.80
2017,10,13,05,58,5.80
2017,10,13,05,59,5.80
2017,10,13,06,00,5.90
2017,10,13,06,01,5.90
2017,10,13,06,02,6.00
2017,10,13,06,03,6.00
2017,10,13,06,04,6.10
2017,10,13,06,05,6.10
2017,10,13,06,06,6.20
2017,10,13,06,07,6.20
2017,10,13,06,08,6.20
2017,10,13,06,09,6.20
2017,10,13,06,10,6.20
2017,10,13,06,11,6.20
2017,10,13,06,12,6.20
2017,10,13,06,13,6.20
2017,10,13,06,14,6.20
2017,10,13,06,15,6.30
2017,10,13,06,16,6.30
2017,10,13,06,17,6.30
2017,10,13,06,18,6.30
2017,10,13,06,19,6.30
2017,10,13,06,20,6.30
2017,10,13,06,21,6.30
2017,10,13,06,22,6.40
2017,10,13,06,23,6.40
2017,10,13,06,24,6.40
2017,10,13,06,25,6.40
2017,10,13,06,26,6.50
2017,10,13,06,27,6.50
2017,10,13,06,28,6.50
2017,10,13,06,29,6.50
2017,10,13,06,30,6.50
2017,10,13,06,31,6.50
2017,10,13,06,32,6.50
2017,10,13,06,33,6.50
2017,10,13,06,34,6.50
2017,10,13,06,35,6.50
2017,10,13,06,36,6.50
2017,10,13,06,37,6.50
2017,10,13,06,38,6.50
2017,10,13,06,39,6.50
2017,10,13,06,40,6.50
2017,10,13,06,41,6.50
2017,10,13,06,42,6.50
2017,10,13,06,43,6.60
2017,10,13,06,44,6.60
2017,10,13,06,45,6.60
2017,10,13,06,46,6.60
2017,10,13,06,47,6.60
2017,10,13,06,48,6.60
2017,10,13,06,49,6.60
2017,10,13,06,50,6.60
2017,10,13,06,51,6.60
2017,10,13,06,52,6.60
2017,10,13,06,53,6.60
2017,10,13,06,54,6.60
2017,10,13,06,55,6.60
2017,10,13,06,56,6.60
2017,10,13,06,57,6.60
2017,10,13,06,58,6.50
2017,10,13,06,59,6.60
2017,10,13,07,00,6.60
2017,10,13,07,01,6.60
2017,10,13,07,02,6.60
2017,10,13,07,03,6.60
2017,10,13,07,04,6.60
2017,10,13,07,05,6.60
2017,10,13,07,06,6.70
2017,10,13,07,07,6.70
2017,10,13,07,08,6.70
2017,10,13,07,09,6.70
2017,10,13,07,10,6.70
2017,10,13,07,11,6.70
2017,10,13,07,12,6.80
2017,10,13,07,13,6.80
2017,10,13,07,14,6.80
2017,10,13,07,15,6.80
2017,10,13,07,16,6.70
2017,10,13,07,17,6.70
2017,10,13,07,18,6.70
2017,10,13,07,19,6.70
2017,10,13,07,20,6.70
2017,10,13,07,21,6.70
2017,10,13,07,22,6.70
2017,10,13,07,23,6.70
2017,10,13,07,24,6.70
2017,10,13,07,25,6.70
2017,10,13,07,26,6.70
2017,10,13,07,27,6.70
2017,10,13,07,28,6.70
2017,10,13,07,29,6.70
2017,10,13,07,30,6.70
2017,10,13,07,31,6.70
2017,10,13,07,32,6.70
2017,10,13,07,33,6.70
2017,10,13,07,34,6.70
2017,10,13,07,35,6.70
2017,10,13,07,36,6.80
2017,10,13,07,37,6.80
2017,10,13,07,38,6.80
2017,10,13,07,39,6.80
2017,10,13,07,40,6.80
2017,10,13,07,41,6.80
2017,10,13,07,42,6.80
2017,10,13,07,43,6.80
2017,10,13,07,44,6.80
2017,10,13,07,45,6.80
2017,10,13,07,46,6.80
2017,10,13,07,47,6.80
2017,10,13,07,48,6.80
2017,10,13,07,49,6.80
2017,10,13,07,50,6.80
2017,10,13,07,51,6.80
2017,10,13,07,52,6.80
2017,10,13,07,53,6.80
2017,10,13,07,54,6.80
2017,10,13,07,55,6.80
2017,10,13,07,56,6.80
2017,10,13,07,57,6.80
2017,10,13,07,58,6.80
2017,10,13,07,59,6.80
2017,10,13,08,00,6.80
2017,10,13,08,01,6.80
2017,10,13,08,02,6.80
2017,10,13,08,03,6.80
2017,10,13,08,04,6.80
2017,10,13,08,05,6.80
2017,10,13,08,06,6.80
2017,10,13,08,07,6.80
2017,10,13,08,08,6.80
2017,10,13,08,09,6.90
2017,10,13,08,10,6.90
2017,10,13,08,11,6.90
2017,10,13,08,12,6.90
2017,10,13,08,13,6.90
2017,10,13,08,14,6.90
2017,10,13,08,15,6.90
2017,10,13,08,16,6.90
2017,10,13,08,17,6.90
2017,10,13,08,18,6.90
2017,10,13,08,19,6.90
2017,10,13,08,20,6.90
2017,10,13,08,21,6.90
2017,10,13,08,22,6.90
2017,10,13,08,23,6.90
2017,10,13,08,24,6.90
2017,10,13,08,25,6.90
2017,10,13,08,26,6.90
2017,10,13,08,27,7.00
2017,10,13,08,28,7.00
2017,10,13,08,29,7.00
2017,10,13,08,30,7.00
2017,10,13,08,31,7.00
2017,10,13,08,32,7.00
2017,10,13,08,33,7.00
2017,10,13,08,34,7.00
2017,10,13,08,35,7.00
2017,10,13,08,36,7.00
2017,10,13,08,37,7.00
2017,10,13,08,38,7.00
2017,10,13,08,39,7.10
2017,10,13,08,40,7.10
2017,10,13,08,41,7.10
2017,10,13,08,42,7.10
2017,10,13,08,43,7.10
2017,10,13,08,44,7.10
2017,10,13,08,45,7.10
2017,10,13,08,46,7.10
2017,10,13,08,47,7.10
2017,10,13,08,48,7.10
2017,10,13,08,49,7.10
2017,10,13,08,50,7.10
2017,10,13,08,51,7.10
2017,10,13,08,52,7.10
2017,10,13,08,53,7.10
2017,10,13,08,54,7.10
2017,10,13,08,55,7.10
2017,10,13,08,56,7.10
2017,10,13,08,57,7.10
2017,10,13,08,58,7.10
2017,10,13,08,59,7.10
2017,10,13,09,00,7.10
2017,10,13,09,01,7.10
2017,10,13,09,02,7.10
2017,10,13,09,03,7.20
2017,10,13,09,04,7.20
2017,10,13,09,05,7.20
2017,10,13,09,06,7.20
2017,10,13,09,07,7.20
2017,10,13,09,08,7.20
2017,10,13,09,09,7.20
2017,10,13,09,10,7.20
2017,10,13,09,11,7.20
2017,10,13,09,12,7.20
2017,10,13,09,13,7.20
2017,10,13,09,14,7.20
2017,10,13,09,15,7.20
2017,10,13,09,16,7.20
2017,10,13,09,17,7.20
2017,10,13,09,18,7.20
2017,10,13,09,19,7.30
2017,10,13,09,20,7.30
2017,10,13,09,21,7.30
2017,10,13,09,22,7.30
2017,10,13,09,23,7.30
2017,10,13,09,24,7.40
2017,10,13,09,25,7.40
2017,10,13,09,26,7.40
2017,10,13,09,27,7.40
2017,10,13,09,28,7.40
2017,10,13,09,29,7.40
2017,10,13,09,30,7.50
2017,10,13,09,31,7.50
2017,10,13,09,32,7.50
2017,10,13,09,33,7.60
2017,10,13,09,34,7.60
2017,10,13,09,35,7.60
2017,10,13,09,36,7.70
2017,10,13,09,37,7.70
2017,10,13,09,38,7.70
2017,10,13,09,39,7.80
2017,10,13,09,40,7.80
2017,10,13,09,41,7.80
2017,10,13,09,42,7.80
2017,10,13,09,43,7.80
2017,10,13,09,44,7.80
2017,10,13,09,45,7.80
2017,10,13,09,46,7.80
2017,10,13,09,47,7.80
2017,10,13,09,48,7.80
2017,10,13,09,49,7.80
2017,10,13,09,50,7.90
2017,10,13,09,51,7.90
2017,10,13,09,52,7.90
2017,10,13,09,53,7.90
2017,10,13,09,54,7.90
2017,10,13,09,55,7.90
2017,10,13,09,56,8.00
2017,10,13,09,57,8.00
2017,10,13,09,58,8.00
2017,10,13,09,59,8.10
2017,10,13,10,00,8.10
2017,10,13,10,01,8.10
2017,10,13,10,02,8.10
2017,10,13,10,03,8.10
2017,10,13,10,04,8.10
2017,10,13,10,05,8.20
2017,10,13,10,06,8.20
2017,10,13,10,07,8.20
2017,10,13,10,08,8.30
2017,10,13,10,09,8.30
2017,10,13,10,10,8.30
2017,10,13,10,11,8.30
2017,10,13,10,12,8.30
2017,10,13,10,13,8.30
2017,10,13,10,14,8.30
2017,10,13,10,15,8.30
2017,10,13,10,16,8.40
2017,10,13,10,17,8.40
2017,10,13,10,18,8.30
2017,10,13,10,19,8.30
2017,10,13,10,20,8.30
2017,10,13,10,21,8.30
2017,10,13,10,22,8.30
2017,10,13,10,23,8.30
2017,10,13,10,24,8.30
2017,10,13,10,25,8.40
2017,10,13,10,26,8.40
2017,10,13,10,27,8.50
2017,10,13,10,28,8.60
2017,10,13,10,29,8.60
2017,10,13,10,30,8.70
2017,10,13,10,31,8.70
2017,10,13,10,32,8.70
2017,10,13,10,33,8.70
2017,10,13,10,34,8.80
2017,10,13,10,35,8.80
2017,10,13,10,36,8.80
2017,10,13,10,37,8.70
2017,10,13,10,38,8.70
2017,10,13,10,39,8.60
2017,10,13,10,40,8.60
2017,10,13,10,41,8.60
2017,10,13,10,42,8.60
2017,10,13,10,43,8.70
2017,10,13,10,44,8.70
2017,10,13,10,45,8.70
2017,10,13,10,46,8.70
2017,10,13,10,47,8.60
2017,10,13,10,48,8.60
2017,10,13,10,49,8.70
2017,10,13,10,50,8.70
2017,10,13,10,51,8.70
2017,10,13,10,52,8.70
2017,10,13,10,53,8.70
2017,10,13,10,54,8.70
2017,10,13,10,55,8.70
2017,10,13,10,56,8.70
2017,10,13,10,57,8.70
2017,10,13,10,58,8.70
2017,10,13,10,59,8.60
2017,10,13,11,00,8.60
2017,10,13,11,01,8.50
2017,10,13,11,02,8.50
2017,10,13,11,03,8.50
2017,10,13,11,04,8.40
2017,10,13,11,05,8.40
2017,10,13,11,06,8.50
2017,10,13,11,07,8.50
2017,10,13,11,08,8.60
2017,10,13,11,09,8.60
2017,10,13,11,10,8.70
2017,10,13,11,11,8.70
2017,10,13,11,12,8.70
2017,10,13,11,13,8.70
2017,10,13,11,14,8.80
2017,10,13,11,15,8.70
2017,10,13,11,16,8.70
2017,10,13,11,17,8.70
2017,10,13,11,18,8.70
2017,10,13,11,19,8.70
2017,10,13,11,20,8.70
2017,10,13,11,21,8.70
2017,10,13,11,22,8.70
2017,10,13,11,23,8.70
2017,10,13,11,24,8.70
2017,10,13,11,25,8.70
2017,10,13,11,26,8.70
2017,10,13,11,27,8.70
2017,10,13,11,28,8.70
2017,10,13,11,29,8.70
2017,10,13,11,30,8.80
2017,10,13,11,31,8.80
2017,10,13,11,32,8.90
2017,10,13,11,33,8.90
2017,10,13,11,34,9.00
2017,10,13,11,35,9.00
2017,10,13,11,36,9.10
2017,10,13,11,37,9.10
2017,10,13,11,38,9.10
2017,10,13,11,39,9.10
2017,10,13,11,40,9.20
2017,10,13,11,41,9.20
2017,10,13,11,42,9.30
2017,10,13,11,43,9.20
2017,10,13,11,44,9.20
2017,10,13,11,45,9.20
2017,10,13,11,46,9.20
2017,10,13,11,47,9.20
2017,10,13,11,48,9.20
2017,10,13,11,49,9.20
2017,10,13,11,50,9.20
2017,10,13,11,51,9.20
2017,10,13,11,52,9.20
2017,10,13,11,53,9.30
2017,10,13,11,54,9.30
2017,10,13,11,55,9.30
2017,10,13,11,56,9.30
2017,10,13,11,57,9.30
2017,10,13,11,58,9.30
2017,10,13,11,59,9.30
2017,10,13,12,00,9.40
2017,10,13,12,01,9.40
2017,10,13,12,02,9.40
2017,10,13,12,03,9.50
2017,10,13,12,04,9.50
2017,10,13,12,05,9.50
2017,10,13,12,06,9.60
2017,10,13,12,07,9.60
2017,10,13,12,08,9.50
2017,10,13,12,09,9.50
2017,10,13,12,10,9.40
2017,10,13,12,11,9.40
2017,10,13,12,12,9.40
2017,10,13,12,13,9.30
2017,10,13,12,14,9.30
2017,10,13,12,15,9.30
2017,10,13,12,16,9.30
2017,10,13,12,17,9.30
2017,10,13,12,18,9.30
2017,10,13,12,19,9.30
2017,10,13,12,20,9.40
2017,10,13,12,21,9.40
2017,10,13,12,22,9.50
2017,10,13,12,23,9.50
2017,10,13,12,24,9.60
2017,10,13,12,25,9.60
2017,10,13,12,26,9.60
2017,10,13,12,27,9.60
2017,10,13,12,28,9.60
2017,10,13,12,29,9.60
2017,10,13,12,30,9.60
2017,10,13,12,31,9.70
2017,10,13,12,32,9.70
2017,10,13,12,33,9.70
2017,10,13,12,34,9.70
2017,10,13,12,35,9.70
2017,10,13,12,36,9.70
2017,10,13,12,37,9.70
2017,10,13,12,38,9.70
2017,10,13,12,39,9.80
2017,10,13,12,40,9.80
2017,10,13,12,41,9.80
2017,10,13,12,42,9.80
2017,10,13,12,43,9.90
2017,10,13,12,44,9.90
2017,10,13,12,45,9.90
2017,10,13,12,46,9.90
2017,10,13,12,47,9.90
2017,10,13,12,48,9.90
2017,10,13,12,49,9.90
2017,10,13,12,50,9.90
2017,10,13,12,51,9.90
2017,10,13,12,52,9.90
2017,10,13,12,53,9.90
2017,10,13,12,54,9.90
2017,10,13,12,55,9.90
2017,10,13,12,56,9.90
2017,10,13,12,57,9.90
2017,10,13,12,58,9.80
2017,10,13,12,59,9.80
2017,10,13,13,00,9.80
2017,10,13,13,01,9.80
2017,10,13,13,02,9.90
2017,10,13,13,03,9.90
2017,10,13,13,04,9.90
2017,10,13,13,05,9.90
2017,10,13,13,06,10.00
2017,10,13,13,07,10.00
2017,10,13,13,08,10.00
2017,10,13,13,09,10.00
2017,10,13,13,10,10.10
2017,10,13,13,11,10.10
2017,10,13,13,12,10.10
2017,10,13,13,13,10.10
2017,10,13,13,14,10.10
2017,10,13,13,15,10.10
2017,10,13,13,16,10.10
2017,10,13,13,17,10.10
2017,10,13,13,18,10.10
2017,10,13,13,19,10.10
2017,10,13,13,20,10.00
2017,10,13,13,21,10.10
2017,10,13,13,22,10.10
2017,10,13,13,23,10.10
2017,10,13,13,24,10.10
2017,10,13,13,25,10.20
2017,10,13,13,26,10.20
2017,10,13,13,27,10.10
2017,10,13,13,28,10.10
2017,10,13,13,29,10.10
2017,10,13,13,30,10.10
2017,10,13,13,31,10.10
2017,10,13,13,32,10.10
2017,10,13,13,33,10.10
2017,10,13,13,34,10.10
2017,10,13,13,35,10.10
2017,10,13,13,36,10.10
2017,10,13,13,37,10.20
2017,10,13,13,38,10.30
2017,10,13,13,39,10.30
2017,10,13,13,40,10.40
2017,10,13,13,41,10.40
2017,10,13,13,42,10.50
2017,10,13,13,43,10.40
2017,10,13,13,44,10.40
2017,10,13,13,45,10.40
2017,10,13,13,46,10.30
2017,10,13,13,47,10.30
2017,10,13,13,48,10.30
2017,10,13,13,49,10.40
2017,10,13,13,50,10.40
2017,10,13,13,51,10.40
2017,10,13,13,52,10.40
2017,10,13,13,53,10.40
2017,10,13,13,54,10.50
2017,10,13,13,55,10.60
2017,10,13,13,56,10.60
2017,10,13,13,57,10.60
2017,10,13,13,58,10.60
2017,10,13,13,59,10.60
2017,10,13,14,00,10.60
2017,10,13,14,01,10.70
2017,10,13,14,02,10.70
2017,10,13,14,03,10.70
2017,10,13,14,04,10.70
2017,10,13,14,05,10.60
2017,10,13,14,06,10.60
2017,10,13,14,07,10.60
2017,10,13,14,08,10.50
2017,10,13,14,09,10.50
2017,10,13,14,10,10.50
2017,10,13,14,11,10.50
2017,10,13,14,12,10.50
2017,10,13,14,13,10.50
2017,10,13,14,14,10.60
2017,10,13,14,15,10.60
2017,10,13,14,16,10.60
2017,10,13,14,17,10.60
2017,10,13,14,18,10.70
2017,10,13,14,19,10.70
2017,10,13,14,20,10.70
2017,10,13,14,21,10.70
2017,10,13,14,22,10.70
2017,10,13,14,23,10.80
2017,10,13,14,24,10.80
2017,10,13,14,25,10.80
2017,10,13,14,26,10.80
2017,10,13,14,27,10.80
2017,10,13,14,28,10.80
2017,10,13,14,29,10.70
2017,10,13,14,30,10.70
2017,10,13,14,31,10.70
2017,10,13,14,32,10.80
2017,10,13,14,33,10.70
2017,10,13,14,34,10.70
2017,10,13,14,35,10.70
2017,10,13,14,36,10.80
2017,10,13,14,37,10.80
2017,10,13,14,38,10.80
2017,10,13,14,39,10.90
2017,10,13,14,40,10.90
2017,10,13,14,41,11.00
2017,10,13,14,42,11.00
2017,10,13,14,43,11.00
2017,10,13,14,44,11.10
2017,10,13,14,45,11.10
2017,10,13,14,46,11.10
2017,10,13,14,47,11.20
2017,10,13,14,48,11.20
2017,10,13,14,49,11.20
2017,10,13,14,50,11.20
2017,10,13,14,51,11.10
2017,10,13,14,52,11.10
2017,10,13,14,53,11.10
2017,10,13,14,54,11.10
2017,10,13,14,55,11.10
2017,10,13,14,56,11.10
2017,10,13,14,57,11.10
2017,10,13,14,58,11.10
2017,10,13,14,59,11.10
2017,10,13,15,00,11.10
2017,10,13,15,01,11.10
2017,10,13,15,02,11.10
2017,10,13,15,03,11.10
2017,10,13,15,04,11.10
2017,10,13,15,05,11.10
2017,10,13,15,06,11.10
2017,10,13,15,07,11.10
2017,10,13,15,08,11.10
2017,10,13,15,09,11.10
2017,10,13,15,10,11.10
2017,10,13,15,11,11.10
2017,10,13,15,12,11.20
2017,10,13,15,13,11.20
2017,10,13,15,14,11.20
2017,10,13,15,15,11.20
2017,10,13,15,16,11.20
2017,10,13,15,17,11.20
2017,10,13,15,18,11.20
2017,10,13,15,19,11.20
2017,10,13,15,20,11.30
2017,10,13,15,21,11.30
2017,10,13,15,22,11.30
2017,10,13,15,23,11.40
2017,10,13,15,24,11.40
2017,10,13,15,25,11.40
2017,10,13,15,26,11.40
2017,10,13,15,27,11.40
2017,10,13,15,28,11.40
2017,10,13,15,29,11.40
2017,10,13,15,30,11.40
2017,10,13,15,31,11.40
2017,10,13,15,32,11.40
2017,10,13,15,33,11.40
2017,10,13,15,34,11.50
2017,10,13,15,35,11.50
2017,10,13,15,36,11.50
2017,10,13,15,37,11.50
2017,10,13,15,38,11.50
2017,10,13,15,39,11.40
2017,10,13,15,40,11.40
2017,10,13,15,41,11.40
2017,10,13,15,42,11.40
2017,10,13,15,43,11.40
2017,10,13,15,44,11.40
2017,10,13,15,45,11.40
2017,10,13,15,46,11.40
2017,10,13,15,47,11.40
2017,10,13,15,48,11.40
2017,10,13,15,49,11.50
2017,10,13,15,50,11.50
2017,10,13,15,51,11.50
2017,10,13,15,52,11.50
2017,10,13,15,53,11.60
2017,10,13,15,54,11.60
2017,10,13,15,55,11.70
2017,10,13,15,56,11.70
2017,10,13,15,57,11.80
2017,10,13,15,58,11.80
2017,10,13,15,59,11.80
2017,10,13,16,00,11.80
2017,10,13,16,01,11.70
2017,10,13,16,02,11.70
2017,10,13,16,03,11.60
2017,10,13,16,04,11.60
2017,10,13,16,05,11.60
2017,10,13,16,06,11.60
2017,10,13,16,07,11.60
2017,10,13,16,08,11.60
2017,10,13,16,09,11.70
2017,10,13,16,10,11.70
2017,10,13,16,11,11.70
2017,10,13,16,12,11.60
2017,10,13,16,13,11.60
2017,10,13,16,14,11.50
2017,10,13,16,15,11.50
2017,10,13,16,16,11.50
2017,10,13,16,17,11.50
2017,10,13,16,18,11.60
2017,10,13,16,19,11.60
2017,10,13,16,20,11.70
2017,10,13,16,21,11.70
2017,10,13,16,22,11.70
2017,10,13,16,23,11.70
2017,10,13,16,24,11.70
2017,10,13,16,25,11.60
2017,10,13,16,26,11.60
2017,10,13,16,27,11.60
2017,10,13,16,28,11.60
2017,10,13,16,29,11.60
2017,10,13,16,30,11.60
2017,10,13,16,31,11.60
2017,10,13,16,32,11.60
2017,10,13,16,33,11.60
2017,10,13,16,34,11.60
2017,10,13,16,35,11.60
2017,10,13,16,36,11.60
2017,10,13,16,37,11.60
2017,10,13,16,38,11.60
2017,10,13,16,39,11.60
2017,10,13,16,40,11.60
2017,10,13,16,41,11.60
2017,10,13,16,42,11.70
2017,10,13,16,43,11.70
2017,10,13,16,44,11.70
2017,10,13,16,45,11.70
2017,10,13,16,46,11.70
2017,10,13,16,47,11.80
2017,10,13,16,48,11.80
2017,10,13,16,49,11.70
2017,10,13,16,50,11.70
2017,10,13,16,51,11.70
2017,10,13,16,52,11.60
2017,10,13,16,53,11.60
2017,10,13,16,54,11.60
2017,10,13,16,55,11.60
2017,10,13,16,56,11.60
2017,10,13,16,57,11.60
2017,10,13,16,58,11.60
2017,10,13,16,59,11.60
2017,10,13,17,00,11.70
2017,10,13,17,01,11.70
2017,10,13,17,02,11.70
2017,10,13,17,03,11.70
2017,10,13,17,04,11.70
2017,10,13,17,05,11.70
2017,10,13,17,06,11.70
2017,10,13,17,07,11.60
2017,10,13,17,08,11.60
2017,10,13,17,09,11.60
2017,10,13,17,10,11.60
2017,10,13,17,11,11.60
2017,10,13,17,12,11.60
2017,10,13,17,13,11.60
2017,10,13,17,14,11.60
2017,10,13,17,15,11.60
2017,10,13,17,16,11.50
2017,10,13,17,17,11.50
2017,10,13,17,18,11.50
2017,10,13,17,19,11.50
2017,10,13,17,20,11.50
2017,10,13,17,21,11.50
2017,10,13,17,22,11.50
2017,10,13,17,23,11.50
2017,10,13,17,24,11.50
2017,10,13,17,25,11.50
2017,10,13,17,26,11.50
2017,10,13,17,27,11.40
2017,10,13,17,28,11.40
2017,10,13,17,29,11.50
2017,10,13,17,30,11.50
2017,10,13,17,31,11.50
2017,10,13,17,32,11.50
2017,10,13,17,33,11.50
2017,10,13,17,34,11.50
2017,10,13,17,35,11.50
2017,10,13,17,36,11.50
2017,10,13,17,37,11.50
2017,10,13,17,38,11.50
2017,10,13,17,39,11.50
2017,10,13,17,40,11.50
2017,10,13,17,41,11.40
2017,10,13,17,42,11.40
2017,10,13,17,43,11.40
2017,10,13,17,44,11.40
2017,10,13,17,45,11.40
2017,10,13,17,46,11.40
2017,10,13,17,47,11.40
2017,10,13,17,48,11.30
2017,10,13,17,49,11.30
2017,10,13,17,50,11.30
2017,10,13,17,51,11.20
2017,10,13,17,52,11.20
2017,10,13,17,53,11.20